Find Starlink 31253

NORAD ID: 58830 Int'l Des: 2024-017 Owner: SPXS Country: US Constellation: starlink operational
LEOCIRCULAR

リアルタイム位置

3D地球を読み込み中...

Starlink 31253について

説明を読み込み中...

次回通過

Passes for default location (London). Set your location on the main map for personalized predictions.

高度履歴

Loading altitude history...

軌道要素

1 58830U 24017E 26130.43315624 .00001041 00000-0 45298-4 0 9996
2 58830 53.1633 277.2300 0000464 78.2936 281.8117 15.31699234129516
Epoch: May 10, 2026 • Age: 12 hours

現在のステータス

高度 476.1 km
速度 7.63 km/s
衛星直下点 -18.96°S, 92.62°W
打ち上げ日 Jan 24, 2024
運用期間 2.2 years
タイプ internet

技術仕様

分類 Payload
質量 730.00 kg
乾燥質量 700.00 kg
総質量 730.00 kg
長さ 0.30 m
直径 4.10 m
スパン 29.00 m
形状 Box + pan
製造者 SPXS
バスタイプ Starlink V2M
フェーズステータス In Orbit
所有者/国 SPXS/US

Most Searched